Temperature
17 17 17 17 16 16 16 16 16 15 15 16 16 16 16 16 16 16 16 16 16 16 16 16 16 15 15 15 16 16 15 15 15 15 15 15 15 15
16 16 16 16 16 16 16 16 16 15 15 15 15 16 15 15 16 16 16 16 16 15 15 15 15 15 15 15 15 15 15 15 15 15 15 15 15 15
16 16 16 16 16 16 16 16 15 15 15 15 15 15 15 15 15 15 15 15 15 15 15 15 15 15 15 15 15 15 15 15 15 15 15 15 15 15
16 16 16 16 16 16 15 15 15 15 15 15 15 15 15 15 15 15 15 15 15 15 15 15 15 15 15 15 15 15 15 15 15 15 15 14 15 15
15 15 15 15 15 15 15 15 15 15 15 14 15 15 15 15 15 15 15 14 14 14 14 15 15 14 14 14 14 14 14 14 15 15 14 14 14 14
15 15 15 15 15 15 15 15 15 14 14 14 14 14 14 14 14 14 14 14 14 14 14 14 14 14 14 14 14 14 14 14 14 14 14 14 14 14
15 15 15 15 15 15 15 14 14 14 14 14 14 14 14 14 14 14 14 14 14 14 14 14 14 14 14 14 14 14 14 14 14 14 14 14 14 14
15 15 15 14 15 14 14 14 14 14 14 14 14 13 14 13 13 13 13 13 13 13 13 14 14 14 14 14 14 13 13 14 14 14 14 13 13 13
14 14 14 14 14 14 14 14 14 14 13 13 13 13 13 13 13 13 13 13 13 13 13 13 13 13 13 13 13 13 13 13 13 13 13 13 13 13
14 14 14 14 14 13 13 14 13 13 13 13 13 13 13 13 13 13 13 12 12 13 12 12 13 13 13 13 13 13 13 13 13 13 13 13 13 13
14 13 13 13 13 13 13 13 13 13 13 13 13 13 13 13 13 12 12 12 12 12 12 12 12 12 13 13 13 13 13 13 13 13 13 13 13 12
13 13 13 13 13 13 13 13 13 13 13 13 13 13 12 12 12 12 12 12 12 12 12 12 12 12 12 12 12 12 12 12 12 13 12 12 12 12
13 13 13 13 13 13 13 13 12 12 12 12 12 12 12 12 12 12 12 12 12 12 12 11 11 11 11 11 12 12 12 12 12 12 12 12 12 12
13 13 13 12 12 12 12 12 12 12 12 12 12 12 12 12 12 12 12 11 11 11 11 11 11 11 11 11 11 11 11 11 11 12 12 12 12 11
13 12 12 12 12 12 12 12 12 12 12 12 12 12 12 12 11 11 11 11 11 11 11 11 11 11 11 11 11 11 11 11 11 11 11 11 11 11
12 12 12 12 12 12 12 12 12 11 11 11 11 11 11 11 11 11 11 11 11 11 11 11 11 10 11 11 11 11 11 11 11 11 11 11 11 11
12 12 12 12 12 11 11 11 11 11 11 11 11 11 11 11 11 11 11 11 10 10 11 11 10 10 10 10 10 11 11 11 11 11 10 10 11 10
11 11 11 11 11 11 11 11 11 11 11 11 11 10 11 10 11 11 10 10 10 10 10 10 10 10 10 10 10 10 10 10 10 10 10 10 10 10
11 11 11 11 11 10 10 10 10 10 10 10 10 10 10 10 10 10 10 10 10 10 10 10 10 10 10 10 10 10 10 10 10 10 10 10 10 10
11 10 10 10 10 10 10 10 10 10 10 10 10 10 10 10 10 10 10 10 10 10 10 10 10 10 10 10 10 10 10 10 10 10 10 10 10 10
10 10 10 10 10 10 10 10 10 10 10 9 9 9 10 10 10 10 10 10 10 10 10 10 10 10 10 9 9 9 10 10 10 10 10 9 9 9
10 10 10 10 9 9 9 9 9 9 9 9 9 9 9 9 9 9 10 10 10 9 9 9 9 9 9 9 9 9 9 9 9 9 9 9 9 9
10 10 9 9 9 9 9 9 9 9 9 9 9 9 9 9 9 9 9 9 9 9 9 9 9 9 9 9 9 9 9 9 9 9 9 9 9 9
Wind_Speed
2 2 2 2 2 2 2 3 3 2 3 3 2 2 3 5 7 6 7 9 10 11 11 11 11 11 10 10 10 10 10 9 9 9 10 10 11 11
1 1 2 2 2 2 2 2 3 4 3 3 3 3 3 3 5 6 7 9 9 9 10 11 12 12 11 11 11 10 10 10 10 9 9 9 10 11
2 1 3 3 2 2 1 1 2 3 4 4 2 2 2 2 3 4 5 5 5 7 8 9 10 11 11 11 11 10 10 10 10 10 10 9 9 10
2 2 3 2 2 2 1 2 2 3 4 4 3 3 3 3 3 3 3 3 4 6 7 8 9 10 10 11 10 10 10 10 10 10 10 10 11 10
2 2 3 2 2 2 2 2 3 2 2 3 3 3 3 2 1 2 3 2 4 5 6 8 9 9 10 11 11 10 10 10 10 10 10 10 10 10
2 2 3 3 3 3 3 3 3 2 2 2 3 3 3 2 1 2 3 3 3 4 4 5 6 7 8 9 10 10 11 11 10 10 10 10 10 10
3 3 3 3 4 3 3 3 3 2 2 2 3 3 3 2 3 2 3 3 4 3 3 3 3 3 4 7 9 10 10 11 11 10 10 10 10 10
3 3 4 3 4 4 4 4 4 4 4 3 3 4 5 4 3 3 2 2 3 2 2 4 2 3 4 5 8 10 10 10 11 11 11 11 10 10
3 3 3 3 3 3 4 4 4 5 5 4 4 5 5 5 4 3 3 4 5 4 2 4 3 4 5 6 8 9 10 10 10 10 10 10 10 10
3 3 2 3 3 2 2 2 3 4 5 4 5 6 6 5 5 5 5 4 4 4 3 4 4 4 5 4 7 8 9 9 9 9 9 9 10 9
3 2 2 3 4 2 1 2 4 5 5 6 5 6 6 6 4 2 2 2 4 4 3 3 3 3 3 4 5 7 8 8 8 8 8 8 8 8
3 3 4 5 5 4 3 3 4 5 4 5 4 5 4 5 5 4 4 4 3 4 3 3 3 1 3 3 2 3 4 5 5 6 7 6 6 4
3 3 4 5 6 6 4 4 7 6 4 3 3 4 3 3 4 3 4 5 4 5 4 3 3 2 3 3 2 2 3 2 2 3 4 5 5 6
4 4 5 6 6 5 4 5 6 4 2 2 3 4 4 4 4 4 5 5 6 7 6 4 3 4 3 3 3 2 2 2 2 2 2 3 4 5
4 6 6 6 4 4 5 5 3 2 2 3 4 5 5 5 3 3 4 4 5 5 5 4 3 3 3 4 3 2 2 2 2 2 2 2 3 3
3 5 5 4 2 3 4 3 2 2 3 4 5 5 4 3 3 3 3 3 3 4 4 4 4 4 3 4 3 3 3 3 3 3 3 2 3 4
2 2 2 2 2 3 3 3 3 2 3 3 4 4 4 4 4 3 3 3 3 4 4 3 3 3 4 3 3 4 3 3 3 3 3 2 3 4
1 1 2 2 3 3 3 3 3 4 4 4 4 4 4 4 4 3 2 3 4 5 4 3 2 1 1 2 4 4 4 4 3 3 3 3 3 3
1 2 3 3 3 3 3 4 4 5 4 4 4 4 4 4 4 4 3 4 4 4 4 3 3 3 4 4 3 4 5 4 3 3 3 3 4 4
1 2 3 3 3 3 3 4 4 4 3 4 4 4 4 4 4 5 4 5 5 4 4 3 4 5 6 5 3 3 4 4 4 3 2 2 1 1
3 3 3 3 3 3 3 3 3 3 4 4 4 5 4 4 5 5 5 5 4 4 4 5 5 5 3 1 1 2 1 2 4 4 3 2 1 1
3 3 3 3 2 3 3 3 3 3 3 3 4 5 4 4 5 5 5 4 4 4 4 4 2 1 2 3 3 2 1 1 0 2 3 4 4 4
3 2 2 2 2 2 2 2 3 3 3 3 4 4 4 4 4 4 4 4 3 3 3 2 1 1 2 3 3 2 2 1 0 1 1 2 3 4
Wind_Direction
243 230 231 251 235 224 205 185 184 232 272 271 274 279 249 237 238 233 230 236 239 239 234 235 240 243 243 243 243 243 241 239 240 240 237 236 236 233
249 249 259 262 260 251 228 209 196 200 241 255 246 265 266 256 249 239 234 241 242 241 236 235 238 241 242 242 242 241 237 236 237 240 240 238 239 237
292 275 266 259 262 271 247 218 213 191 226 268 262 268 258 272 268 259 254 243 249 251 247 243 242 243 244 245 243 241 239 237 237 237 237 237 240 238
285 289 281 276 271 259 238 234 230 208 204 247 268 263 259 254 249 262 265 267 262 268 260 252 248 248 244 241 241 241 240 237 236 235 234 233 235 237
250 250 264 265 277 270 254 246 246 238 209 221 257 259 262 271 270 278 280 275 272 274 273 262 259 254 246 241 238 240 242 241 237 234 233 233 233 234
256 248 254 241 251 258 258 244 237 237 228 230 251 263 260 262 249 268 285 276 275 275 276 272 267 259 251 241 238 240 240 238 236 234 232 231 230 232
284 271 264 268 264 253 254 238 222 227 233 240 254 266 264 255 251 247 255 275 276 263 275 280 273 270 263 251 243 241 241 240 237 233 232 229 227 228
276 284 283 288 287 281 277 257 228 221 228 229 241 242 250 244 243 240 233 259 280 264 235 273 261 265 262 251 248 242 239 239 236 233 231 229 229 228
246 263 286 300 304 297 298 299 269 251 231 213 224 236 239 238 232 240 233 230 250 252 236 268 261 259 262 262 251 246 243 241 238 235 234 231 228 226
247 244 253 276 283 271 291 307 287 271 255 236 225 237 238 233 223 226 229 243 263 263 210 246 261 256 265 262 254 246 247 242 238 234 228 229 229 226
258 255 239 258 277 278 286 288 295 293 286 274 259 254 253 252 233 206 224 234 270 272 233 219 255 265 268 264 259 251 248 245 238 232 225 224 227 224
276 270 262 260 269 266 245 251 275 282 292 299 296 296 282 272 255 219 209 219 245 265 246 209 239 250 282 273 251 252 249 248 235 225 222 221 216 201
265 275 275 276 277 277 263 242 250 261 270 268 275 281 285 277 267 245 218 208 223 246 241 205 223 216 225 269 280 242 223 229 223 224 223 222 206 190
248 260 270 281 281 282 277 267 269 270 264 267 273 274 271 266 263 254 239 233 231 238 243 214 215 213 214 242 262 262 235 223 208 212 214 214 216 211
258 266 274 283 286 277 278 282 284 267 259 264 267 268 263 261 261 265 266 259 261 257 248 225 213 215 208 222 235 236 242 243 218 210 206 204 211 205
288 295 298 297 300 292 300 300 281 257 252 256 264 268 271 269 261 254 258 262 266 277 274 243 216 204 213 220 220 237 222 213 213 217 206 214 218 208
277 308 319 322 315 312 314 311 300 302 288 274 270 277 278 273 270 262 242 239 240 251 264 266 242 227 214 205 223 234 227 226 216 207 194 216 228 219
176 261 271 268 270 274 280 290 288 286 280 276 274 273 272 270 275 274 253 240 245 248 247 243 230 259 284 268 224 220 222 224 226 207 191 205 233 229
149 256 264 265 266 266 267 268 271 273 271 270 270 273 275 274 274 270 262 254 252 251 246 230 215 213 229 256 268 218 211 222 210 206 207 203 216 224
253 261 272 276 273 272 271 269 272 281 280 276 274 275 275 271 269 265 255 250 251 250 252 241 226 219 222 232 240 255 221 203 195 201 210 203 219 247
266 268 267 269 275 275 275 284 287 287 292 290 284 281 280 276 271 268 260 252 243 241 247 250 247 231 225 184 215 269 259 212 189 185 182 171 186 191
254 261 265 263 271 285 290 294 302 306 310 301 294 289 284 278 272 267 263 255 246 241 247 259 268 217 200 206 218 225 244 326 49 171 176 179 178 193
246 247 253 259 269 289 297 298 298 301 302 301 303 304 305 299 286 272 263 251 246 241 246 254 263 233 212 204 210 206 191 209 285 57 356 318 223 213
Height
1515 1515 1514 1514 1513 1513 1512 1512 1512 1510 1509 1510 1511 1511 1511 1511 1511 1510 1510 1509 1509 1509 1509 1509 1508 1508 1507 1507 1507 1507 1507 1507 1508 1508 1509 1509 1510 1510
1513 1512 1511 1511 1510 1510 1509 1509 1509 1508 1507 1507 1507 1508 1508 1507 1507 1507 1506 1506 1506 1506 1506 1505 1505 1504 1504 1503 1503 1503 1503 1503 1504 1504 1505 1505 1505 1506
1510 1510 1509 1508 1508 1507 1506 1506 1505 1505 1504 1503 1504 1504 1504 1504 1503 1503 1503 1502 1502 1502 1502 1502 1501 1501 1500 1500 1499 1499 1499 1499 1499 1500 1500 1500 1501 1501
1507 1507 1506 1505 1505 1504 1503 1502 1502 1501 1501 1500 1500 1500 1500 1500 1500 1500 1499 1499 1499 1498 1498 1498 1497 1497 1496 1496 1495 1495 1495 1495 1495 1495 1495 1496 1496 1496
1504 1504 1503 1502 1501 1501 1500 1499 1499 1498 1498 1497 1496 1497 1496 1496 1496 1496 1495 1495 1495 1494 1494 1493 1493 1493 1492 1491 1491 1491 1491 1491 1491 1491 1491 1491 1491 1492
1501 1500 1500 1499 1498 1498 1497 1496 1495 1494 1494 1494 1493 1492 1492 1492 1492 1491 1491 1491 1491 1491 1490 1489 1489 1488 1488 1487 1487 1487 1487 1486 1486 1486 1486 1486 1487 1487
1498 1497 1496 1496 1495 1494 1493 1492 1492 1490 1490 1490 1489 1489 1488 1488 1488 1487 1487 1487 1486 1486 1485 1485 1485 1484 1484 1483 1483 1483 1483 1482 1482 1482 1482 1482 1482 1483
1495 1494 1493 1492 1491 1491 1490 1489 1489 1487 1486 1486 1485 1485 1484 1484 1484 1484 1483 1482 1482 1482 1481 1480 1481 1480 1480 1479 1479 1479 1479 1479 1478 1478 1478 1478 1478 1479
1492 1491 1490 1489 1488 1487 1486 1485 1485 1484 1484 1483 1482 1481 1481 1480 1480 1479 1479 1479 1478 1478 1477 1476 1476 1475 1476 1475 1475 1475 1475 1475 1474 1474 1474 1474 1474 1475
1490 1488 1487 1486 1485 1484 1483 1482 1481 1481 1480 1479 1478 1477 1477 1477 1476 1476 1475 1475 1474 1474 1474 1472 1471 1471 1471 1471 1471 1470 1470 1470 1470 1470 1470 1470 1470 1471
1487 1486 1485 1484 1483 1482 1480 1479 1478 1477 1477 1476 1475 1474 1474 1473 1473 1472 1471 1471 1469 1469 1469 1468 1466 1466 1466 1465 1466 1466 1466 1466 1466 1466 1466 1467 1467 1467
1484 1483 1482 1481 1480 1479 1477 1476 1474 1473 1472 1471 1471 1470 1470 1469 1469 1468 1467 1467 1466 1465 1464 1464 1462 1462 1461 1461 1461 1461 1461 1462 1462 1462 1462 1463 1463 1463
1480 1479 1478 1477 1476 1475 1474 1472 1471 1470 1469 1468 1467 1466 1465 1465 1464 1464 1463 1463 1462 1460 1460 1460 1458 1458 1457 1456 1456 1457 1457 1457 1458 1458 1458 1458 1459 1459
1477 1476 1475 1474 1473 1472 1470 1469 1468 1467 1466 1464 1463 1462 1461 1460 1460 1460 1459 1458 1457 1456 1456 1455 1454 1453 1453 1452 1452 1452 1452 1453 1453 1453 1454 1454 1455 1455
1473 1473 1472 1470 1469 1468 1467 1466 1465 1464 1462 1461 1459 1458 1457 1456 1456 1455 1454 1453 1452 1451 1451 1450 1449 1449 1448 1448 1447 1447 1448 1448 1449 1449 1450 1450 1450 1451
1469 1469 1468 1467 1465 1464 1463 1462 1461 1460 1459 1457 1456 1455 1453 1452 1451 1450 1449 1448 1447 1446 1446 1445 1445 1444 1443 1443 1443 1443 1444 1444 1445 1445 1445 1446 1446 1447
1466 1465 1463 1462 1461 1460 1459 1458 1457 1456 1455 1454 1452 1450 1449 1448 1447 1446 1445 1444 1443 1441 1440 1440 1440 1440 1439 1439 1439 1439 1439 1440 1440 1441 1441 1441 1442 1443
1463 1461 1459 1459 1457 1456 1455 1454 1453 1452 1451 1449 1448 1446 1445 1443 1442 1441 1440 1439 1438 1437 1436 1435 1435 1435 1435 1434 1435 1435 1435 1436 1436 1437 1437 1438 1438 1439
1459 1457 1456 1455 1454 1453 1452 1451 1450 1448 1447 1445 1443 1442 1441 1439 1438 1437 1436 1435 1433 1432 1432 1431 1431 1431 1430 1429 1430 1431 1431 1431 1432 1432 1433 1434 1434 1436
1456 1454 1453 1452 1451 1449 1448 1447 1446 1444 1442 1441 1440 1438 1436 1435 1433 1432 1431 1430 1429 1428 1427 1427 1427 1426 1426 1426 1426 1426 1427 1427 1428 1428 1430 1431 1432 1433
1453 1451 1450 1449 1447 1446 1445 1443 1442 1440 1438 1437 1435 1434 1432 1431 1429 1428 1427 1426 1425 1424 1423 1422 1422 1423 1423 1423 1423 1422 1423 1424 1425 1425 1426 1427 1428 1429
1450 1448 1447 1445 1444 1442 1441 1439 1438 1436 1435 1433 1431 1430 1428 1426 1425 1423 1422 1421 1420 1420 1419 1419 1419 1419 1419 1419 1419 1419 1420 1421 1422 1423 1424 1425 1425 1426
1447 1445 1444 1442 1441 1439 1438 1436 1435 1433 1431 1429 1427 1425 1424 1422 1420 1419 1418 1417 1417 1416 1415 1415 1415 1415 1415 1416 1416 1416 1417 1418 1418 1419 1421 1422 1423 1425